This demonstration page uses our WeatherBlox Daily Observations layout. Learn more.

Left ArrowRight Arrow

34.16533, -84.80231

Hourly Observations for August 4, 2019

Temp ( °F °C ) Dew Point ( °F °C ) Humidity (%) Winds ( mph kmh ) Pressure ( in mb ) Visibility ( mi km ) Precip ( " mm )
12:53 am 00:53 Mostly Cloudy 75 23.9 71 21.7 88 88 Calm 29.97 1015 10 16 0.00 0.00
1:53 am 01:53 Mostly Cloudy 75 23.9 71 21.7 88 88 Calm 29.96 1015 10 16 0.00 0.00
2:53 am 02:53 Cloudy 74 23.3 71 21.7 91 91 Calm 29.96 1015 9 14 0.00 0.00
3:53 am 03:53 Mostly Cloudy with Mist and Fog 72 22.2 70 21.1 94 94 Calm 29.95 1014 6 10 0.00 0.00
4:53 am 04:53 Mostly Clear 72 22.2 70 21.1 94 94 Calm 29.95 1014 7 11 0.00 0.00
5:53 am 05:53 Mostly Cloudy 72 22.2 70 21.1 94 94 Calm 29.96 1014 8 13 0.00 0.00
6:53 am 06:53 Cloudy 73 22.8 71 21.7 94 94 Calm 29.98 1015 9 14 0.00 0.00
7:00 am 07:00 Cloudy 73 22.8 71 21.7 94 94 Calm 30.00 1016 9 14 0.00 0.00
7:21 am 07:21 Cloudy with Nearby Thunderstorms 73 22.8 70 21.1 90 90 VRB 5 7 30.01 1016 9 14 0.00 0.00
7:35 am 07:35 Cloudy with Thunderstorms 73 22.8 69 20.6 87 87 S 7 11 30.03 1017 10 16 0.00 0.00
7:53 am 07:53 Cloudy with Thunderstorms 72 22.2 69 20.6 91 91 VRB 5 7 30.02 1017 3 4 0.07 1.78
8:00 am 08:00 Cloudy with Strong Thunderstorms 71 21.7 69 20.6 94 94 S 8 13 30.03 1017 1 2 0.13 3.30
8:07 am 08:07 Cloudy with Strong Thunderstorms 71 21.7 68 20 90 90 S 8 13 30.02 1017 1 2 0.26 6.60
8:20 am 08:20 Cloudy with Nearby Thunderstorms 71 21.7 68 20 90 90 Calm 30.03 1017 3 4 0.32 8.13
8:41 am 08:41 Cloudy with Nearby Thunderstorms 71 21.7 69 20.6 94 94 Calm 30.03 1017 5 8 0.36 9.14
8:53 am 08:53 Mostly Cloudy with Light Rain 71 21.7 68 20 90 90 Calm 30.01 1016 6 10 0.37 9.40
9:00 am 09:00 Mostly Cloudy with Thunderstorms 71 21.7 68 20 90 90 Calm 30.03 1017 5 8 0.01 0.25
9:15 am 09:15 Mostly Cloudy with Rain 71 21.7 69 20.6 94 94 S 5 7 30.03 1017 3 5 0.05 1.27
9:51 am 09:51 Cloudy with Light Rain 72 22 70 21 94 94 Calm 30.03 1017 5 8 0.11 2.79
9:53 am 09:53 Cloudy with Light Rain 71 21.7 69 20.6 94 94 Calm 30.01 1016 6 10 0.11 2.79
10:02 am 10:02 Cloudy with Light Rain 72 22.2 69 20.6 91 91 Calm 30.03 1017 8 13 0.00 0.00
10:23 am 10:23 Cloudy 72 22.2 70 21.1 94 94 Calm 30.04 1017 9 14 0.00 0.00
10:39 am 10:39 Mostly Cloudy 73 22.8 70 21.1 90 90 Calm 30.04 1017 10 16 0.00 0.00
10:53 am 10:53 Mostly Cloudy 73 22.8 70 21.1 90 90 Calm 30.01 1016 10 16 0.00 0.00
11:31 am 11:31 Mostly Cloudy 76 24.4 70 21.1 82 82 ENE 3 6 30.01 1016 10 16 0.00 0.00
11:43 am 11:43 Mostly Sunny 76 24.4 70 21.1 82 82 VRB 3 6 30.01 1016 10 16 0.00 0.00
11:53 am 11:53 Sunny 77 25 70 21.1 79 79 NNE 3 6 30.01 1016 10 16 0.00 0.00
12:53 pm 12:53 Mostly Sunny 81 27.2 71 21.7 72 72 ENE 5 7 30.01 1016 10 16 0.00 0.00
1:53 pm 13:53 Sunny 81 27.2 71 21.7 72 72 VRB 6 9 29.98 1015 10 16 0.00 0.00
2:53 pm 14:53 Sunny 84 28.9 70 21.1 63 63 NE 3 6 29.96 1015 10 16 0.00 0.00
3:53 pm 15:53 Sunny 86 30 70 21.1 59 59 ENE 8 13 29.92 1013 10 16 0.00 0.00
4:53 pm 16:53 Partly Cloudy 88 31.1 71 21.7 57 57 ENE 3 6 29.91 1013 10 16 0.00 0.00
5:53 pm 17:53 Sunny 87 30.6 69 20.6 55 55 Calm 29.91 1013 10 16 0.00 0.00
6:53 pm 18:53 Sunny 84 28.9 70 21.1 63 63 Calm 29.91 1013 10 16 0.00 0.00
7:53 pm 19:53 Sunny 81 27.2 74 23.3 79 79 Calm 29.91 1013 10 16 0.00 0.00
8:53 pm 20:53 Mostly Clear 76 24.4 73 22.8 91 91 Calm 29.93 1014 10 16 0.00 0.00
9:53 pm 21:53 Partly Cloudy 77 25 69 20.6 77 77 Calm 29.96 1015 10 16 0.00 0.00
10:53 pm 22:53 Clear 76 24.4 68 20 77 77 Calm 29.96 1015 10 16 0.00 0.00
11:53 pm 23:53 Clear 75 23.9 68 20 79 79 Calm 29.96 1015 10 16 0.00 0.00

Powered by AerisWeather